Check out our new BloomSky Weather System.

Active alerts

Houston, TX
  Details for Houston, TX Areal Flood Advisory


Thunder radar  blitzortung!


Rain radar more information rain snow radar


Visit our other weather sites:

Template documentation
and downloads

And another site



Weather Underground History page Text

Daily Summary for February 15, 2017 Units:  Metric    English   Both
« Previous Day
Next Day »
Daily Weekly Monthly Yearly Custom
  High: Low: Average:
Temperature: -17.8 °C 7.5 °C 11.7 °C
Dew Point: -17.8 °C 2.1 °C 4.6 °C
Humidity: Humidity % 38 % 63 %
Wind Speed: 0 km/h 0 km/h 6.3 km/h
Wind Gust: 0 km/h - -
Wind:- - NW
Pressure: 0 hPa 1015.5 hPa -
Precipitation: 0 mm    
Historical Graphs
 
 
Tabular Data for February 15, 2017
Time Temperature Dew Point Pressure Wind Wind Speed Wind Gust Humidity Rainfall Rate (Hourly)
-17.8 °C -17.8 °C 0 hPa Calm     Humidity % 0 mm
00:00 10.6 °C 6.4 °C 1015.8 hPa NW 14.5 km/h 20.9 km/h 75 % 0 mm
00:05 10.6 °C 6.4 °C 1015.8 hPa NNW 6.4 km/h 22.5 km/h 75 % 0 mm
00:10 10.6 °C 6.5 °C 1015.8 hPa WNW 8 km/h 22.5 km/h 76 % 0 mm
00:15 10.6 °C 6.5 °C 1015.8 hPa NW 11.3 km/h 22.5 km/h 76 % 0 mm
00:20 10.6 °C 6.5 °C 1015.8 hPa NW 9.7 km/h 22.5 km/h 76 % 0 mm
00:25 10.6 °C 6.4 °C 1015.8 hPa NNW 9.7 km/h 29 km/h 75 % 0 mm
00:30 10.5 °C 6.3 °C 1015.8 hPa WNW 11.3 km/h 29 km/h 75 % 0 mm
00:35 10.4 °C 6.2 °C 1015.8 hPa NNW 9.7 km/h 29 km/h 75 % 0 mm
00:40 10.4 °C 6.2 °C 1015.8 hPa SW 6.4 km/h 24.1 km/h 75 % 0 mm
00:45 10.4 °C 6.2 °C 1015.8 hPa NW 11.3 km/h 20.9 km/h 75 % 0 mm
00:50 10.4 °C 6 °C 1015.8 hPa NW 17.7 km/h 20.9 km/h 74 % 0 mm
00:55 10.4 °C 6 °C 1015.8 hPa NW 6.4 km/h 25.7 km/h 74 % 0 mm
01:00 10.3 °C 5.7 °C 1015.8 hPa NNW 3.2 km/h 25.7 km/h 73 % 0 mm
01:05 10.3 °C 5.7 °C 1015.8 hPa NNW 4.8 km/h 25.7 km/h 73 % 0 mm
01:10 10.3 °C 5.7 °C 1015.8 hPa NW 12.9 km/h 25.7 km/h 73 % 0 mm
01:15 10.3 °C 5.9 °C 1015.8 hPa NW 3.2 km/h 25.7 km/h 74 % 0 mm
01:20 10.3 °C 5.9 °C 1015.8 hPa WNW 6.4 km/h 20.9 km/h 74 % 0 mm
01:26 10.2 °C 5.6 °C 1015.8 hPa NW 12.9 km/h 25.7 km/h 73 % 0 mm
01:31 10.2 °C 5.8 °C 1015.8 hPa NW 8 km/h 25.7 km/h 74 % 0 mm
01:36 10.1 °C 5.9 °C 1015.8 hPa NW 1.6 km/h 25.7 km/h 75 % 0 mm
01:41 10.1 °C 5.9 °C 1015.8 hPa NNW 12.9 km/h 24.1 km/h 75 % 0 mm
01:46 9.9 °C 5.7 °C 1015.8 hPa NNW 14.5 km/h 22.5 km/h 75 % 0 mm
01:51 9.9 °C 5.9 °C 1015.8 hPa NW 9.7 km/h 22.5 km/h 76 % 0 mm
01:56 9.9 °C 6.1 °C 1015.8 hPa NW 8 km/h 17.7 km/h 77 % 0 mm
02:01 9.8 °C 6 °C 1015.5 hPa SSW 1.6 km/h 17.7 km/h 77 % 0 mm
02:06 9.8 °C 5.8 °C 1015.8 hPa NW 6.4 km/h 20.9 km/h 76 % 0 mm
02:11 9.7 °C 5.9 °C 1015.8 hPa West 9.7 km/h 20.9 km/h 77 % 0 mm
02:16 9.7 °C 6 °C 1015.8 hPa North 8 km/h 20.9 km/h 78 % 0 mm
02:21 9.6 °C 5.8 °C 1015.5 hPa North 12.9 km/h 24.1 km/h 77 % 0 mm
02:26 9.4 °C 5.6 °C 1015.5 hPa NNW 6.4 km/h 33.8 km/h 77 % 0 mm
02:31 9.3 °C 5.5 °C 1015.8 hPa NW 6.4 km/h 33.8 km/h 77 % 0 mm
02:36 9.3 °C 5.5 °C 1015.8 hPa NW 8 km/h 33.8 km/h 77 % 0 mm
02:41 9.2 °C 5.6 °C 1015.8 hPa NW 11.3 km/h 27.4 km/h 78 % 0 mm
02:46 9.2 °C 5.4 °C 1015.8 hPa NNW 8 km/h 27.4 km/h 77 % 0 mm
02:51 9.2 °C 5.4 °C 1015.8 hPa NNW 6.4 km/h 25.7 km/h 77 % 0 mm
02:56 9.2 °C 5.6 °C 1015.8 hPa NNW 6.4 km/h 25.7 km/h 78 % 0 mm
03:01 9.2 °C 5.6 °C 1015.8 hPa NNW 9.7 km/h 25.7 km/h 78 % 0 mm
03:06 9.1 °C 5.7 °C 1016.1 hPa WNW 6.4 km/h 16.1 km/h 79 % 0 mm
03:11 9.1 °C 5.5 °C 1016.1 hPa West 1.6 km/h 14.5 km/h 78 % 0 mm
03:16 9 °C 5.6 °C 1015.8 hPa NNW 8 km/h 16.1 km/h 79 % 0 mm
03:21 8.9 °C 5.5 °C 1016.1 hPa West 4.8 km/h 16.1 km/h 79 % 0 mm
03:26 8.8 °C 5.4 °C 1015.8 hPa NNW 9.7 km/h 16.1 km/h 79 % 0 mm
03:31 8.8 °C 5.4 °C 1015.8 hPa NNW 4.8 km/h 16.1 km/h 79 % 0 mm
03:36 8.8 °C 5.5 °C 1016.1 hPa NW 6.4 km/h 16.1 km/h 80 % 0 mm
03:41 8.8 °C 5.4 °C 1016.1 hPa North 4.8 km/h 17.7 km/h 79 % 0 mm
03:46 8.7 °C 5.3 °C 1016.1 hPa NNW 11.3 km/h 19.3 km/h 79 % 0 mm
03:51 8.6 °C 5.2 °C 1016.1 hPa WNW 4.8 km/h 24.1 km/h 79 % 0 mm
03:56 8.6 °C 5.2 °C 1015.8 hPa NW 4.8 km/h 24.1 km/h 79 % 0 mm
04:01 8.6 °C 5.2 °C 1016.1 hPa NNW 9.7 km/h 24.1 km/h 79 % 0 mm
04:06 8.5 °C 5.1 °C 1016.1 hPa NW 6.4 km/h 19.3 km/h 79 % 0 mm
04:11 8.4 °C 5 °C 1016.1 hPa NW 9.7 km/h 19.3 km/h 79 % 0 mm
04:16 8.4 °C 5 °C 1016.1 hPa NNW 12.9 km/h 19.3 km/h 79 % 0 mm
04:21 8.4 °C 5.2 °C 1016.5 hPa NNW 9.7 km/h 22.5 km/h 80 % 0 mm
04:27 8.4 °C 5.2 °C 1016.5 hPa WNW 8 km/h 22.5 km/h 80 % 0 mm
04:32 8.4 °C 5 °C 1016.5 hPa NW 4.8 km/h 25.7 km/h 79 % 0 mm
04:37 8.4 °C 5 °C 1016.5 hPa NW 12.9 km/h 25.7 km/h 79 % 0 mm
04:42 8.4 °C 5.2 °C 1016.5 hPa WNW 6.4 km/h 25.7 km/h 80 % 0 mm
04:47 8.4 °C 5.2 °C 1016.8 hPa NW 4.8 km/h 20.9 km/h 80 % 0 mm
04:52 8.4 °C 5.2 °C 1016.8 hPa NW 16.1 km/h 20.9 km/h 80 % 0 mm
04:57 8.4 °C 5.2 °C 1016.8 hPa WSW 3.2 km/h 19.3 km/h 80 % 0 mm
05:02 8.3 °C 5.1 °C 1017.2 hPa NW 9.7 km/h 19.3 km/h 80 % 0 mm
05:07 8.3 °C 5.1 °C 1017.2 hPa NW 6.4 km/h 19.3 km/h 80 % 0 mm
05:12 8.3 °C 5.1 °C 1017.2 hPa WNW 3.2 km/h 17.7 km/h 80 % 0 mm
05:17 8.4 °C 5 °C 1017.2 hPa NNW 12.9 km/h 17.7 km/h 79 % 0 mm
05:22 8.4 °C 4.8 °C 1017.2 hPa WNW 12.9 km/h 17.7 km/h 78 % 0 mm
05:27 8.4 °C 4.8 °C 1017.2 hPa NNW 3.2 km/h 22.5 km/h 78 % 0 mm
05:32 8.4 °C 4.8 °C 1017.2 hPa NW 4.8 km/h 22.5 km/h 78 % 0 mm
05:37 8.4 °C 4.8 °C 1017.5 hPa NW 3.2 km/h 22.5 km/h 78 % 0 mm
05:42 8.4 °C 4.8 °C 1017.5 hPa WNW 4.8 km/h 20.9 km/h 78 % 0 mm
05:47 8.5 °C 4.9 °C 1017.5 hPa NW 6.4 km/h 17.7 km/h 78 % 0 mm
05:52 8.4 °C 4.8 °C 1017.5 hPa WNW 8 km/h 17.7 km/h 78 % 0 mm
05:57 8.4 °C 4.6 °C 1017.5 hPa NNW 6.4 km/h 11.3 km/h 77 % 0 mm
06:02 8.4 °C 4.8 °C 1017.8 hPa WNW 6.4 km/h 12.9 km/h 78 % 0 mm
06:07 8.4 °C 4.8 °C 1017.8 hPa NW 8 km/h 12.9 km/h 78 % 0 mm
06:12 8.4 °C 4.8 °C 1017.8 hPa North 1.6 km/h 17.7 km/h 78 % 0 mm
06:17 8.3 °C 4.9 °C 1018.2 hPa NW 4.8 km/h 17.7 km/h 79 % 0 mm
06:27 8.3 °C 4.9 °C 1018.5 hPa Calm   14.5 km/h 79 % 0 mm
06:32 8.3 °C 5.1 °C 1018.5 hPa NNW 1.6 km/h 14.5 km/h 80 % 0 mm
06:37 8.3 °C 5.1 °C 1018.8 hPa NNW 8 km/h 14.5 km/h 80 % 0 mm
06:42 8.3 °C 5.1 °C 1018.8 hPa Calm   11.3 km/h 80 % 0 mm
06:47 8.3 °C 5.1 °C 1018.8 hPa NW 4.8 km/h 11.3 km/h 80 % 0 mm
06:52 8.3 °C 5.1 °C 1018.8 hPa NNW 3.2 km/h 11.3 km/h 80 % 0 mm
06:57 8.3 °C 5.2 °C 1018.8 hPa NW 3.2 km/h 9.7 km/h 81 % 0 mm
07:02 8.4 °C 5.2 °C 1018.8 hPa NNW 4.8 km/h 9.7 km/h 80 % 0 mm
07:07 8.4 °C 5.2 °C 1018.8 hPa West 1.6 km/h 12.9 km/h 80 % 0 mm
07:12 8.4 °C 5.3 °C 1018.8 hPa NNW 3.2 km/h 12.9 km/h 81 % 0 mm
07:17 8.4 °C 5.3 °C 1019.2 hPa West 1.6 km/h 12.9 km/h 81 % 0 mm
07:22 8.4 °C 5.3 °C 1019.2 hPa NW 4.8 km/h 9.7 km/h 81 % 0 mm
07:28 8.4 °C 5.3 °C 1019.2 hPa NNW 3.2 km/h 9.7 km/h 81 % 0 mm
07:33 8.4 °C 5.2 °C 1019.2 hPa NW 4.8 km/h 11.3 km/h 80 % 0 mm
07:38 8.4 °C 5.2 °C 1019.5 hPa North 9.7 km/h 14.5 km/h 80 % 0 mm
07:43 8.4 °C 5.2 °C 1019.5 hPa WNW 1.6 km/h 14.5 km/h 80 % 0 mm
07:48 8.5 °C 5.4 °C 1019.5 hPa WSW 4.8 km/h 14.5 km/h 81 % 0 mm
07:53 8.5 °C 5.4 °C 1019.5 hPa Calm   14.5 km/h 81 % 0 mm
07:58 8.5 °C 5.4 °C 1019.5 hPa NW 9.7 km/h 9.7 km/h 81 % 0 mm
08:03 8.4 °C 5.3 °C 1019.9 hPa NW 8 km/h 12.9 km/h 81 % 0 mm
08:08 8.4 °C 5.3 °C 1019.9 hPa North 4.8 km/h 14.5 km/h 81 % 0 mm
08:13 8.5 °C 5.4 °C 1019.9 hPa NNW 8 km/h 14.5 km/h 81 % 0 mm
08:18 8.5 °C 5.4 °C 1019.9 hPa North 3.2 km/h 14.5 km/h 81 % 0 mm
08:23 8.6 °C 5.5 °C 1019.9 hPa NW 6.4 km/h 16.1 km/h 81 % 0 mm
08:28 8.6 °C 5.5 °C 1019.9 hPa WNW 6.4 km/h 16.1 km/h 81 % 0 mm
08:33 8.7 °C 5.6 °C 1019.9 hPa NNW 1.6 km/h 16.1 km/h 81 % 0 mm
08:43 8.7 °C 5.4 °C 1019.9 hPa NW 9.7 km/h 14.5 km/h 80 % 0 mm
08:48 8.7 °C 5.4 °C 1019.9 hPa NNW 6.4 km/h 19.3 km/h 80 % 0 mm
08:53 8.7 °C 5.4 °C 1019.9 hPa NW 3.2 km/h 19.3 km/h 80 % 0 mm
08:58 8.8 °C 5.5 °C 1019.9 hPa NW 11.3 km/h 19.3 km/h 80 % 0 mm
09:03 8.8 °C 5.4 °C 1019.9 hPa WSW 8 km/h 20.9 km/h 79 % 0 mm
09:08 9 °C 5.6 °C 1020.2 hPa NNW 14.5 km/h 20.9 km/h 79 % 0 mm
09:13 9.2 °C 5.7 °C 1020.2 hPa NNW 8 km/h 20.9 km/h 79 % 0 mm
09:18 9.2 °C 5.4 °C 1020.2 hPa NW 14.5 km/h 20.9 km/h 77 % 0 mm
09:23 9.3 °C 5.7 °C 1020.2 hPa NW 9.7 km/h 20.9 km/h 78 % 0 mm
09:28 9.4 °C 5.6 °C 1020.2 hPa WNW 14.5 km/h 20.9 km/h 77 % 0 mm
09:33 9.5 °C 5.7 °C 1020.2 hPa NW 6.4 km/h 20.9 km/h 77 % 0 mm
09:43 9.8 °C 5.8 °C 1020.2 hPa WNW 12.9 km/h 19.3 km/h 76 % 0 mm
09:48 10 °C 5.6 °C 1020.2 hPa NNW 8 km/h 17.7 km/h 74 % 0 mm
09:53 10.1 °C 5.5 °C 1020.2 hPa NW 8 km/h 22.5 km/h 73 % 0 mm
09:58 10.1 °C 5.7 °C 1020.2 hPa North 14.5 km/h 22.5 km/h 74 % 0 mm
10:03 10 °C 5.6 °C 1020.2 hPa NNW 4.8 km/h 22.5 km/h 74 % 0 mm
10:08 10.1 °C 5.7 °C 1020.2 hPa NW 11.3 km/h 22.5 km/h 74 % 0 mm
10:13 10.8 °C 6.4 °C 1020.2 hPa West 6.4 km/h 20.9 km/h 74 % 0 mm
10:18 11.1 °C 6 °C 1020.5 hPa NW 11.3 km/h 19.3 km/h 71 % 0 mm
10:23 11.2 °C 6.1 °C 1020.5 hPa WNW 4.8 km/h 24.1 km/h 71 % 0 mm
10:24 11.2 °C 6.1 °C 1020.5 hPa North 8 km/h 24.1 km/h 71 % 0 mm
10:29 11.4 °C 6.1 °C 1020.5 hPa NNW 9.7 km/h 24.1 km/h 70 % 0 mm
10:34 11.4 °C 5.9 °C 1020.5 hPa NW 6.4 km/h 24.1 km/h 69 % 0 mm
10:39 11.3 °C 5.6 °C 1020.5 hPa NW 8 km/h 19.3 km/h 68 % 0 mm
10:44 11.4 °C 5.7 °C 1020.5 hPa NW 6.4 km/h 25.7 km/h 68 % 0 mm
10:49 12 °C 6.3 °C 1020.5 hPa WNW 9.7 km/h 25.7 km/h 68 % 0 mm
10:54 12.6 °C 6 °C 1020.2 hPa NW 8 km/h 25.7 km/h 64 % 0 mm
10:59 12.7 °C 6.1 °C 1020.2 hPa North 11.3 km/h 20.9 km/h 64 % 0 mm
11:04 12.7 °C 6.1 °C 1020.2 hPa WNW 16.1 km/h 20.9 km/h 64 % 0 mm
11:09 12.8 °C 6.2 °C 1020.2 hPa NNW 14.5 km/h 24.1 km/h 64 % 0 mm
11:14 13.1 °C 6 °C 1019.9 hPa NW 14.5 km/h 24.1 km/h 62 % 0 mm
11:19 13.1 °C 6 °C 1019.9 hPa NNW 12.9 km/h 32.2 km/h 62 % 0 mm
11:24 13.2 °C 5.8 °C 1019.9 hPa West 8 km/h 32.2 km/h 61 % 0 mm
11:29 13.4 °C 5.8 °C 1019.9 hPa NW 9.7 km/h 32.2 km/h 60 % 0 mm
11:34 13.6 °C 6 °C 1019.9 hPa NNW 16.1 km/h 22.5 km/h 60 % 0 mm
11:39 13.8 °C 6.4 °C 1019.9 hPa WNW 8 km/h 25.7 km/h 61 % 0 mm
11:44 14.1 °C 6.2 °C 1019.9 hPa NNW 6.4 km/h 25.7 km/h 59 % 0 mm
11:49 14.2 °C 6.1 °C 1019.9 hPa NNW 12.9 km/h 25.7 km/h 58 % 0 mm
11:54 13.9 °C 5.8 °C 1019.9 hPa NNW 16.1 km/h 24.1 km/h 58 % 0 mm
11:59 14.1 °C 6.2 °C 1019.9 hPa North 14.5 km/h 29 km/h 59 % 0 mm
12:04 14.2 °C 6.1 °C 1019.9 hPa NW 6.4 km/h 29 km/h 58 % 0 mm
12:09 14.2 °C 6.1 °C 1019.9 hPa NW 9.7 km/h 29 km/h 58 % 0 mm
12:14 14.3 °C 6.4 °C 1019.9 hPa WNW 9.7 km/h 25.7 km/h 59 % 0 mm
12:19 14.6 °C 6.4 °C 1019.9 hPa North 9.7 km/h 25.7 km/h 58 % 0 mm
12:24 14.8 °C 6.4 °C 1019.9 hPa NNW 9.7 km/h 22.5 km/h 57 % 0 mm
12:29 14.8 °C 6.1 °C 1019.9 hPa WNW 9.7 km/h 19.3 km/h 56 % 0 mm
12:34 14.9 °C 6.2 °C 1019.9 hPa NNW 8 km/h 19.3 km/h 56 % 0 mm
12:39 15.1 °C 6.4 °C 1019.5 hPa WNW 19.3 km/h 19.3 km/h 56 % 0 mm
12:44 14.9 °C 6.2 °C 1019.5 hPa NNW 4.8 km/h 20.9 km/h 56 % 0 mm
12:49 15 °C 6 °C 1019.5 hPa NW 8 km/h 20.9 km/h 55 % 0 mm
12:55 15.1 °C 6.4 °C 1019.2 hPa NNW 9.7 km/h 20.9 km/h 56 % 0 mm
13:00 15.1 °C 6.1 °C 1019.2 hPa NW 12.9 km/h 19.3 km/h 55 % 0 mm
13:05 15 °C 6 °C 1019.2 hPa North 6.4 km/h 19.3 km/h 55 % 0 mm
13:10 15.3 °C 6.6 °C 1019.2 hPa NNW 9.7 km/h 19.3 km/h 56 % 0 mm
13:15 15.4 °C 6.7 °C 1019.2 hPa North 8 km/h 19.3 km/h 56 % 0 mm
13:20 15.6 °C 5.8 °C 1019.2 hPa NW 11.3 km/h 24.1 km/h 52 % 0 mm
13:25 15.3 °C 5.8 °C 1018.8 hPa NNW 8 km/h 24.1 km/h 53 % 0 mm
13:30 15.4 °C 6.1 °C 1018.8 hPa NW 4.8 km/h 24.1 km/h 54 % 0 mm
13:35 15.6 °C 6.1 °C 1018.8 hPa North 9.7 km/h 20.9 km/h 53 % 0 mm
13:40 15.9 °C 6.3 °C 1018.8 hPa NNW 11.3 km/h 20.9 km/h 53 % 0 mm
13:45 16.3 °C 6.1 °C 1018.8 hPa NW 6.4 km/h 20.9 km/h 51 % 0 mm
13:50 16.4 °C 5.7 °C 1018.5 hPa NNW 8 km/h 20.9 km/h 49 % 0 mm
13:55 16.2 °C 5.8 °C 1018.5 hPa NNE 9.7 km/h 20.9 km/h 50 % 0 mm
14:00 16.1 °C 6 °C 1018.5 hPa NNE 12.9 km/h 20.9 km/h 51 % 0 mm
14:05 16.2 °C 6.1 °C 1018.5 hPa NNW 9.7 km/h 20.9 km/h 51 % 0 mm
14:10 16.4 °C 5.7 °C 1018.2 hPa NW 14.5 km/h 14.5 km/h 49 % 0 mm
14:20 16.2 °C 5.5 °C 1018.2 hPa NW 8 km/h 19.3 km/h 49 % 0 mm
14:25 16.4 °C 5.4 °C 1018.2 hPa NNW 17.7 km/h 20.9 km/h 48 % 0 mm
14:30 16.4 °C 4.7 °C 1018.5 hPa NNW 11.3 km/h 25.7 km/h 46 % 0 mm
14:35 16.6 °C 5.2 °C 1018.2 hPa WNW 14.5 km/h 25.7 km/h 47 % 0 mm
14:40 16.3 °C 5 °C 1018.2 hPa NW 4.8 km/h 25.7 km/h 47 % 0 mm
14:45 16.1 °C 4.2 °C 1018.2 hPa NW 8 km/h 24.1 km/h 45 % 0 mm
14:50 16.3 °C 4.7 °C 1018.2 hPa NNW 1.6 km/h 24.1 km/h 46 % 0 mm
14:55 16.7 °C 4.7 °C 1017.8 hPa NW 4.8 km/h 24.1 km/h 45 % 0 mm
15:00 17.1 °C 5.4 °C 1017.8 hPa NW 11.3 km/h 17.7 km/h 46 % 0 mm
15:05 17.2 °C 4.8 °C 1017.8 hPa North 12.9 km/h 19.3 km/h 44 % 0 mm
15:10 17.3 °C 4.6 °C 1017.8 hPa WNW 11.3 km/h 19.3 km/h 43 % 0 mm
15:15 17.3 °C 4.3 °C 1018.2 hPa NW 12.9 km/h 20.9 km/h 42 % 0 mm
15:20 17.3 °C 3.9 °C 1017.8 hPa NNW 6.4 km/h 20.9 km/h 41 % 0 mm
15:25 17.4 °C 4.4 °C 1017.8 hPa WNW 6.4 km/h 20.9 km/h 42 % 0 mm
15:30 17.2 °C 3.8 °C 1017.8 hPa WNW 6.4 km/h 20.9 km/h 41 % 0 mm
15:35 17 °C 4.3 °C 1017.8 hPa SW 4.8 km/h 20.9 km/h 43 % 0 mm
15:40 16.9 °C 3.9 °C 1017.8 hPa WNW 11.3 km/h 20.9 km/h 42 % 0 mm
15:45 17.1 °C 4.1 °C 1017.8 hPa WNW 8 km/h 19.3 km/h 42 % 0 mm
15:50 16.9 °C 4.2 °C 1017.8 hPa NNW 3.2 km/h 19.3 km/h 43 % 0 mm
15:55 17.1 °C 4.7 °C 1017.8 hPa WSW 1.6 km/h 19.3 km/h 44 % 0 mm
16:00 17.3 °C 4.6 °C 1017.8 hPa NW 3.2 km/h 11.3 km/h 43 % 0 mm
16:05 17.4 °C 4.4 °C 1017.8 hPa NW 6.4 km/h 14.5 km/h 42 % 0 mm
16:10 17.2 °C 3.5 °C 1017.8 hPa NW 17.7 km/h 17.7 km/h 40 % 0 mm
16:16 17 °C 3.6 °C 1017.8 hPa NW 11.3 km/h 19.3 km/h 41 % 0 mm
16:21 16.9 °C 3.9 °C 1017.8 hPa ESE 3.2 km/h 19.3 km/h 42 % 0 mm
16:26 17.2 °C 3.8 °C 1017.8 hPa NNW 4.8 km/h 19.3 km/h 41 % 0 mm
16:31 17.1 °C 3.7 °C 1017.8 hPa West 11.3 km/h 19.3 km/h 41 % 0 mm
16:36 17.2 °C 3.8 °C 1017.8 hPa NW 4.8 km/h 16.1 km/h 41 % 0 mm
16:41 17.2 °C 3.8 °C 1017.8 hPa NNW 4.8 km/h 16.1 km/h 41 % 0 mm
16:46 17.3 °C 2.8 °C 1017.8 hPa NW 3.2 km/h 16.1 km/h 38 % 0 mm
16:51 17.4 °C 2.9 °C 1017.8 hPa NNW 4.8 km/h 16.1 km/h 38 % 0 mm
16:56 17.2 °C 3.1 °C 1017.8 hPa North 16.1 km/h 19.3 km/h 39 % 0 mm
17:01 17.2 °C 3.1 °C 1017.8 hPa NW 9.7 km/h 19.3 km/h 39 % 0 mm
17:06 17.1 °C 3 °C 1017.8 hPa NW 9.7 km/h 19.3 km/h 39 % 0 mm
17:11 17.1 °C 3 °C 1017.8 hPa NNW 6.4 km/h 16.1 km/h 39 % 0 mm
17:16 17.1 °C 3 °C 1017.8 hPa NNW 6.4 km/h 14.5 km/h 39 % 0 mm
17:21 17.1 °C 3 °C 1017.8 hPa WNW 3.2 km/h 12.9 km/h 39 % 0 mm
17:26 16.9 °C 2.9 °C 1017.8 hPa NW 9.7 km/h 12.9 km/h 39 % 0 mm
17:31 16.8 °C 3.1 °C 1017.8 hPa NW 4.8 km/h 14.5 km/h 40 % 0 mm
17:36 16.6 °C 2.9 °C 1017.8 hPa WNW 8 km/h 16.1 km/h 40 % 0 mm
17:41 16.5 °C 2.9 °C 1017.8 hPa NNW 8 km/h 16.1 km/h 40 % 0 mm
17:46 16.4 °C 2.8 °C 1017.8 hPa NW 6.4 km/h 16.1 km/h 40 % 0 mm
17:51 16.2 °C 2.6 °C 1017.8 hPa NNW 6.4 km/h 11.3 km/h 40 % 0 mm
17:56 16.1 °C 2.8 °C 1017.8 hPa NNW 8 km/h 12.9 km/h 41 % 0 mm
18:01 15.9 °C 2.7 °C 1017.8 hPa NW 1.6 km/h 12.9 km/h 41 % 0 mm
18:06 15.8 °C 2.6 °C 1017.8 hPa NNW 1.6 km/h 12.9 km/h 41 % 0 mm
18:11 15.7 °C 2.5 °C 1017.8 hPa NW 6.4 km/h 12.9 km/h 41 % 0 mm
18:16 15.6 °C 2.7 °C 1017.8 hPa NNW 8 km/h 12.9 km/h 42 % 0 mm
18:21 15.4 °C 2.9 °C 1017.8 hPa NNW 4.8 km/h 12.9 km/h 43 % 0 mm
18:26 15.3 °C 2.8 °C 1017.8 hPa NW 3.2 km/h 9.7 km/h 43 % 0 mm
18:31 15.2 °C 2.7 °C 1018.2 hPa NW 3.2 km/h 8 km/h 43 % 0 mm
18:36 15 °C 2.8 °C 1018.2 hPa NW 1.6 km/h 8 km/h 44 % 0 mm
18:37 15 °C 2.8 °C 1018.2 hPa WNW 1.6 km/h 8 km/h 44 % 0 mm
18:42 14.8 °C 2.7 °C 1018.2 hPa NW 1.6 km/h 8 km/h 44 % 0 mm
18:47 14.7 °C 2.9 °C 1018.2 hPa NW 3.2 km/h 8 km/h 45 % 0 mm
18:52 14.6 °C 2.8 °C 1018.2 hPa NW 1.6 km/h 8 km/h 45 % 0 mm
18:57 14.5 °C 2.7 °C 1018.5 hPa NW 1.6 km/h 4.8 km/h 45 % 0 mm
19:02 14.3 °C 2.8 °C 1018.5 hPa NNW 1.6 km/h 4.8 km/h 46 % 0 mm
19:07 14.2 °C 2.7 °C 1018.5 hPa WNW 1.6 km/h 4.8 km/h 46 % 0 mm
19:12 14.1 °C 2.6 °C 1018.8 hPa NW 3.2 km/h 4.8 km/h 46 % 0 mm
19:17 14.1 °C 2.6 °C 1018.8 hPa Calm   8 km/h 46 % 0 mm
19:22 13.9 °C 2.5 °C 1018.8 hPa NW 1.6 km/h 8 km/h 46 % 0 mm
19:27 13.9 °C 2.2 °C 1018.8 hPa NNW 3.2 km/h 8 km/h 45 % 0 mm
19:32 13.8 °C 2.4 °C 1019.2 hPa NW 1.6 km/h 6.4 km/h 46 % 0 mm
19:37 13.7 °C 2.3 °C 1019.2 hPa NNW 1.6 km/h 6.4 km/h 46 % 0 mm
19:42 13.5 °C 2.1 °C 1019.2 hPa Calm   6.4 km/h 46 % 0 mm
19:47 13.3 °C 2.2 °C 1019.2 hPa Calm   3.2 km/h 47 % 0 mm
19:52 12.9 °C 2.4 °C 1019.5 hPa Calm   3.2 km/h 49 % 0 mm
19:57 12.6 °C 2.4 °C 1019.5 hPa Calm   1.6 km/h 50 % 0 mm
20:02 12.3 °C 2.4 °C 1019.5 hPa Calm     51 % 0 mm
20:07 12.1 °C 2.8 °C 1019.5 hPa Calm   1.6 km/h 53 % 0 mm
20:12 11.8 °C 2.8 °C 1019.5 hPa Calm   1.6 km/h 54 % 0 mm
20:17 11.5 °C 2.8 °C 1019.9 hPa Calm   1.6 km/h 55 % 0 mm
20:22 11.4 °C 2.7 °C 1019.9 hPa Calm   1.6 km/h 55 % 0 mm
20:27 11.2 °C 2.7 °C 1019.9 hPa Calm   1.6 km/h 56 % 0 mm
20:32 11.2 °C 2.7 °C 1019.9 hPa Calm   1.6 km/h 56 % 0 mm
20:37 11.1 °C 2.7 °C 1019.9 hPa Calm   1.6 km/h 56 % 0 mm
20:42 11.1 °C 2.7 °C 1019.9 hPa Calm   1.6 km/h 56 % 0 mm
20:47 11.1 °C 2.9 °C 1019.9 hPa WNW 1.6 km/h 1.6 km/h 57 % 0 mm
20:52 11.3 °C 2.8 °C 1019.9 hPa Calm   3.2 km/h 56 % 0 mm
20:57 11.4 °C 2.7 °C 1019.9 hPa NNW 4.8 km/h 4.8 km/h 55 % 0 mm
21:02 11.8 °C 2.8 °C 1019.9 hPa NW 3.2 km/h 6.4 km/h 54 % 0 mm
21:07 12 °C 2.7 °C 1019.9 hPa NW 4.8 km/h 8 km/h 53 % 0 mm
21:13 12.1 °C 2.8 °C 1019.9 hPa NW 4.8 km/h 8 km/h 53 % 0 mm
21:18 12.1 °C 2.8 °C 1020.2 hPa NW 3.2 km/h 8 km/h 53 % 0 mm
21:23 12 °C 2.7 °C 1020.2 hPa NW 1.6 km/h 8 km/h 53 % 0 mm
21:28 11.9 °C 2.9 °C 1020.2 hPa NW 1.6 km/h 8 km/h 54 % 0 mm
21:33 11.8 °C 2.8 °C 1020.2 hPa NW 1.6 km/h 6.4 km/h 54 % 0 mm
21:38 11.6 °C 2.9 °C 1020.2 hPa Calm   6.4 km/h 55 % 0 mm
21:43 11.3 °C 2.8 °C 1020.2 hPa Calm   6.4 km/h 56 % 0 mm
21:48 11 °C 2.8 °C 1020.2 hPa Calm   1.6 km/h 57 % 0 mm
21:53 10.7 °C 2.8 °C 1020.2 hPa Calm   1.6 km/h 58 % 0 mm
21:58 10.6 °C 2.9 °C 1020.2 hPa Calm   1.6 km/h 59 % 0 mm
22:03 10.7 °C 3 °C 1020.2 hPa Calm   1.6 km/h 59 % 0 mm
22:08 10.7 °C 3.2 °C 1020.2 hPa Calm   3.2 km/h 60 % 0 mm
22:13 10.5 °C 3.1 °C 1020.2 hPa Calm   3.2 km/h 60 % 0 mm
22:18 10.2 °C 3 °C 1020.2 hPa Calm   3.2 km/h 61 % 0 mm
22:23 9.8 °C 2.9 °C 1020.5 hPa Calm   3.2 km/h 62 % 0 mm
22:28 9.5 °C 3 °C 1020.5 hPa Calm     64 % 0 mm
22:33 9.2 °C 3 °C 1020.5 hPa Calm     65 % 0 mm
22:38 9 °C 3 °C 1020.5 hPa Calm     66 % 0 mm
22:43 8.8 °C 3 °C 1020.5 hPa Calm     67 % 0 mm
22:48 8.7 °C 3.1 °C 1020.5 hPa Calm     68 % 0 mm
22:53 8.6 °C 3 °C 1020.5 hPa Calm     68 % 0 mm
22:58 8.4 °C 3 °C 1020.5 hPa Calm     69 % 0 mm
23:03 8.3 °C 2.9 °C 1020.5 hPa Calm     69 % 0 mm
23:08 8.3 °C 3.1 °C 1020.5 hPa Calm     70 % 0 mm
23:13 8.2 °C 3.3 °C 1020.5 hPa Calm     71 % 0 mm
23:18 8.2 °C 3.3 °C 1020.9 hPa Calm     71 % 0 mm
23:23 8.2 °C 3.5 °C 1020.5 hPa Calm   1.6 km/h 72 % 0 mm
23:28 8 °C 3.1 °C 1020.9 hPa Calm   1.6 km/h 71 % 0 mm
23:33 7.7 °C 2.8 °C 1020.5 hPa Calm   1.6 km/h 71 % 0 mm
23:38 7.6 °C 3.3 °C 1020.5 hPa Calm   1.6 km/h 74 % 0 mm
23:43 7.6 °C 3.3 °C 1020.5 hPa Calm   1.6 km/h 74 % 0 mm
23:48 7.6 °C 3.5 °C 1020.5 hPa Calm   1.6 km/h 75 % 0 mm
23:53 7.5 °C 3.4 °C 1020.5 hPa Calm   1.6 km/h 75 % 0 mm
23:58 7.6 °C 3.3 °C 1020.5 hPa Calm   1.6 km/h 74 % 0 mm
Spring, Texas: Villages of Bridgestone
Compliments of Weather Underground - 2.75 mb

Script developed by  Jim McMurry - jmcmurry@mwt.net Adapted for the template by  Wim van der Kuil - Leuven-Template.eu

You find our weather info also at:

UK Metoffice

WeatherCloud

Weather Underground

Mid-South Weather Network

AWEKAS

Citizen Weather Observer Program (CWOP)

HAMweather, WeatherForYou, PWS Weather

Equipment we use:

Weather-station
Davis Vantage Vue

Weather-program
Meteohub

Weather-server
Debian 7.9 x86 (Guest)

Provider
DreamHost

Davis Vantage Vue

Meteohub

Debian 7.9 x86 (Guest)

DreamHost